SL-16 DEB, 22340

Orbit data source: Space-Track

SL-16 DEB, 22340 is space debris in LEO originally from a launch on Fri, 25 Dec 1992 UTC launched from the Tyuratam Missile And Space Complex (TTMTR). Debris objects in space refer to the collection of defunct objects orbiting the Earth. Examples of debris include non-operational satellites, rocket bodies, and fragments generated from explosions, collisions, or faulty payload assembly.

Loading next visibility...
Identifier
22340, 1992-093AD
Orbit
LEO
Country
Flag of CISCIS
Related business
Manufacturer
Unknown
Mission
Spacecraft
Bus & Motor
Unknown
Mass
Unknown
Launch date (UTC)
1992-12-25 (33 years ago)
Launch vehicle
Unknown
Launch site
Tyuratam Missile And Space Complex (TTMTR)
Object type
Payload
Rocket body
Debris
Shape & HBR
Unknown shape, 0.3 m
Radar Cross Section
Medium (>0.1 m² and <1 m²)

Expand to show TLE details & history
Last TLE update: 12 hours ago

TLE from 12 hours ago
0 SL-16 DEB
1 22340U 92093AD  25351.77154995  .00000023  00000-0  50241-4 0  9998
2 22340  70.8747 129.3377 0103484 269.3755 209.6298 13.94524583677320
Epoch: 2025-12-17T18:31Z
TLE epoch observation values (Epoch: 2025-12-17T18:31:01.915Z)
Latitude
56.3001°
Longitude
-86.20664°
Altitude
987.442 km
Speed
7.33 km/s
True Right ascension
18h 32m 45s
True Declination
56° 08' 46"
Sunlit
Object was in daylight at epoch
Visualization orbit readout
Latitude
Unknown
Longitude
Unknown
Altitude
Unknown
Speed
Unknown
Apparent Right ascension
Unknown
Apparent Declination
Unknown
Sunlit
N/A
Visualization observer readout
Local Sidereal Time
05:32:56
Azimuth
Unknown
Elevation
Unknown
Doppler factor
Unknown
Orbital elements
Apogee altitude
986.203 km
Perigee altitude
835.346 km
Semi-major axis
7,288.911 km
Eccentricity
0.01035
Inclination
70.8747°
RAAN
129.3377°
Arg. of periapsis
269.3755°
True anomaly
209.05006°
Mean anomaly
209.6298°
Eccentric anomaly
209.33928°
Mean motion
3.48778 °/min
Orbital period
103.22 mins
BSTAR
0.000050241
Loading maneuver chart data...
Computing Atmospheric mass density...
Loading historical data...
Loading historical data...
Loading historical data...
Loading historical data...
Loading historical data...
Loading historical data...
Loading historical data...

Documentation

Showing up to 5 results
|